Location: Eitze
(52.9840°N, 9.6894°E)
Time: 23:33:26
(UTC+00:00)

SL-14 R/B - Pass Details

Date: 19 May 2025
Orbit: 501 x 530 km, 82.4° (Epoch: 15 June)

Event Time Altitude Azimuth Distance (km) Brightness Sun altitude
Exits shadow 23:54:05 33° 160° (SSE) 895 3.9 -16.6°
Maximum altitude 23:55:35 57° 97° (E) 617 3.5 -16.6°
Drops below altitude 10° 23:59:24 10° 18° (NNE) 1,774 7.2 -16.5°
Sets 00:01:35 0° 15° (NNE) 2,673 8.7 -16.4°
